N852SB KOKV-KDCA

Flight info

Callsign N852SB
Flight time 0h 19m
Altitude 11000
Route ALWYZ FRDMM6
Aircraft TBM9/L-SDFGRWY/S

Departure

Time 2026-04-15 21:31
Airport Winchester Regional Airport (KOKV)

Arrival

Time 2026-04-15 21:50
Airport Ronald Reagan Washington National Airport (KDCA)
Time Latitude Longitude Altitude Speed Heading
2026-04-15 21:14 39.14803 -78.15196 732 ft 0 kts 338°
2026-04-15 21:19 39.14811 -78.15199 732 ft 0 kts 351°
2026-04-15 21:27 39.14815 -78.15199 730 ft 5 kts
2026-04-15 21:27 39.14858 -78.15147 730 ft 10 kts 45°
2026-04-15 21:27 39.14866 -78.15129 730 ft 0 kts 107°
2026-04-15 21:28 39.14859 -78.15120 730 ft 0 kts 130°
2026-04-15 21:30 39.14857 -78.15118 730 ft 5 kts 133°
2026-04-15 21:30 39.14672 -78.14869 724 ft 75 kts 133°
2026-04-15 21:30 39.14199 -78.14215 922 ft 113 kts 136°
2026-04-15 21:31 39.12676 -78.13278 1901 ft 134 kts 171°
2026-04-15 21:31 39.11762 -78.12961 2548 ft 135 kts 169°
2026-04-15 21:32 39.09957 -78.12303 3660 ft 143 kts 169°
2026-04-15 21:32 39.08941 -78.11954 3960 ft 159 kts 171°
2026-04-15 21:32 39.07838 -78.11571 4409 ft 168 kts 168°
2026-04-15 21:32 39.06802 -78.10767 4823 ft 182 kts 141°
2026-04-15 21:33 39.06243 -78.09293 5201 ft 191 kts 108°
2026-04-15 21:33 39.05967 -78.07614 5626 ft 192 kts 107°
2026-04-15 21:33 39.05675 -78.05939 6060 ft 193 kts 107°
2026-04-15 21:33 39.05374 -78.04264 6480 ft 194 kts 107°
2026-04-15 21:34 39.05069 -78.02559 6903 ft 196 kts 106°
2026-04-15 21:34 39.04757 -78.00829 7231 ft 204 kts 106°
2026-04-15 21:34 39.04428 -77.99011 7579 ft 210 kts 106°
2026-04-15 21:34 39.04100 -77.97189 7934 ft 215 kts 105°
2026-04-15 21:35 39.03754 -77.95266 8306 ft 218 kts 105°
2026-04-15 21:35 39.03410 -77.93356 8669 ft 221 kts 105°
2026-04-15 21:35 39.03065 -77.91446 8957 ft 223 kts 105°
2026-04-15 21:35 39.02714 -77.89511 9274 ft 225 kts 105°
2026-04-15 21:36 39.02355 -77.87518 9654 ft 227 kts 105°
2026-04-15 21:36 39.01988 -77.85481 9987 ft 232 kts 105°
2026-04-15 21:36 39.01615 -77.83446 10001 ft 248 kts 105°
2026-04-15 21:36 39.01225 -77.81322 10002 ft 239 kts 105°
2026-04-15 21:37 39.00854 -77.79258 10001 ft 235 kts 104°
2026-04-15 21:37 39.00488 -77.77232 9997 ft 232 kts 105°
2026-04-15 21:37 39.00119 -77.75208 9999 ft 236 kts 105°
2026-04-15 21:37 38.99740 -77.73134 10002 ft 241 kts 105°
2026-04-15 21:38 38.99353 -77.71014 10004 ft 244 kts 105°
2026-04-15 21:38 38.98961 -77.68873 10010 ft 246 kts 105°
2026-04-15 21:38 38.98569 -77.66728 10004 ft 247 kts 105°
2026-04-15 21:38 38.98103 -77.64592 9796 ft 243 kts 113°
2026-04-15 21:39 38.97522 -77.62682 9477 ft 225 kts 114°
2026-04-15 21:39 38.96981 -77.60866 9208 ft 210 kts 114°
2026-04-15 21:39 38.96473 -77.59118 8962 ft 219 kts 113°
2026-04-15 21:39 38.95903 -77.57197 8734 ft 241 kts 114°
2026-04-15 21:40 38.95285 -77.55139 8461 ft 241 kts 114°
2026-04-15 21:40 38.94763 -77.53176 8183 ft 229 kts 104°
2026-04-15 21:40 38.94697 -77.51155 7989 ft 221 kts 83°
2026-04-15 21:40 38.95073 -77.49323 7987 ft 206 kts 65°
2026-04-15 21:41 38.95667 -77.47618 7997 ft 220 kts 64°
2026-04-15 21:41 38.96276 -77.45762 8003 ft 225 kts 65°
2026-04-15 21:41 38.96881 -77.43913 8002 ft 222 kts 65°
2026-04-15 21:41 38.97486 -77.42112 8002 ft 217 kts 64°
2026-04-15 21:42 38.98069 -77.40372 8000 ft 211 kts 65°
2026-04-15 21:42 38.98653 -77.38632 7962 ft 212 kts 64°
2026-04-15 21:42 38.99237 -77.36879 7712 ft 211 kts 65°
2026-04-15 21:42 38.99787 -77.35215 7390 ft 194 kts 65°
2026-04-15 21:43 39.00317 -77.33635 7010 ft 194 kts 64°
2026-04-15 21:43 39.00863 -77.32006 6628 ft 207 kts 64°
2026-04-15 21:43 39.01465 -77.30225 6263 ft 225 kts 65°
2026-04-15 21:43 39.02060 -77.28432 5885 ft 211 kts 66°
2026-04-15 21:44 39.02612 -77.26728 5354 ft 211 kts 73°
2026-04-15 21:44 39.02757 -77.24842 4762 ft 206 kts 99°
2026-04-15 21:44 39.02407 -77.23124 4181 ft 200 kts 120°
2026-04-15 21:44 39.01646 -77.21683 3596 ft 188 kts 139°
2026-04-15 21:45 39.00714 -77.20562 3062 ft 187 kts 143°
2026-04-15 21:45 38.99739 -77.19384 3029 ft 183 kts 142°
2026-04-15 21:45 38.98884 -77.18328 3009 ft 160 kts 142°
2026-04-15 21:45 38.98097 -77.17219 2976 ft 182 kts 137°
2026-04-15 21:46 38.97243 -77.15959 2836 ft 186 kts 136°
2026-04-15 21:46 38.96452 -77.14637 2600 ft 178 kts 136°
2026-04-15 21:46 38.95521 -77.13531 2316 ft 180 kts 150°
2026-04-15 21:46 38.94524 -77.12632 2117 ft 174 kts 152°
2026-04-15 21:47 38.93511 -77.11770 1946 ft 174 kts 154°
2026-04-15 21:47 38.92526 -77.10981 1820 ft 172 kts 154°
2026-04-15 21:47 38.91541 -77.10072 1809 ft 166 kts 146°
2026-04-15 21:47 38.90758 -77.09111 1670 ft 146 kts 137°
2026-04-15 21:48 38.90365 -77.07994 1556 ft 147 kts 110°
2026-04-15 21:48 38.90104 -77.06723 1208 ft 141 kts 129°
2026-04-15 21:48 38.89363 -77.05912 1021 ft 134 kts 150°
2026-04-15 21:48 38.88654 -77.05261 948 ft 99 kts 153°
2026-04-15 21:49 38.88211 -77.04757 791 ft 85 kts 147°
2026-04-15 21:49 38.87790 -77.04230 679 ft 76 kts 152°
2026-04-15 21:49 38.87290 -77.03986 397 ft 80 kts 178°
2026-04-15 21:49 38.86738 -77.03943 199 ft 75 kts 176°
2026-04-15 21:50 38.86235 -77.03889 98 ft 71 kts 176°
2026-04-15 21:50 38.85767 -77.03840 18 ft 60 kts 177°
2026-04-15 21:50 38.85487 -77.03810 18 ft 27 kts 174°
2026-04-15 21:50 38.85279 -77.03790 14 ft 30 kts 177°
2026-04-15 21:51 38.85144 -77.03850 15 ft 17 kts 220°
2026-04-15 21:51 38.85118 -77.03880 15 ft 0 kts 219°
2026-04-15 21:52 38.85116 -77.03881 15 ft 3 kts 218°
2026-04-15 21:52 38.85064 -77.03908 14 ft 11 kts 178°
2026-04-15 21:52 38.84976 -77.03899 13 ft 14 kts 176°
2026-04-15 21:52 38.84886 -77.03897 13 ft 12 kts 212°
2026-04-15 21:53 38.84850 -77.03945 14 ft 13 kts 180°
2026-04-15 21:53 38.84751 -77.03966 16 ft 10 kts 210°
2026-04-15 21:53 38.84685 -77.04006 16 ft 11 kts 207°
2026-04-15 21:53 38.84626 -77.04037 17 ft 5 kts 193°
2026-04-15 21:54 38.84544 -77.04087 20 ft 14 kts 251°
2026-04-15 21:54 38.84532 -77.04220 19 ft 17 kts 277°
2026-04-15 21:54 38.84581 -77.04350 18 ft 16 kts 314°
2026-04-15 21:54 38.84648 -77.04436 18 ft 12 kts 269°
2026-04-15 21:55 38.84596 -77.04508 18 ft 12 kts 166°
2026-04-15 21:55 38.84550 -77.04518 18 ft 0 kts 235°